contact:dominique.lefevre@mio.osupytheas.fr, maurice.libes@osupytheas.fr, didier.mallarino@osupytheas.fr
Project:EMSO http://www.emso-fr.org/EMSO-France
Depth: 2436.0 m
Title:EMSO Ligure Ouest : Data MII capteur MICROCAT
DateTime_Computer,Latitude,Longitude,Temperature,Conductivity,Pressure,DateTime_Instrument
DateTime_Computer,Latitude,Longitude,degC,S m-1,dbar,DateTime_Instrument
2021-06-30T00:00:12Z,42.805,6.029,13.3001,4.60019,2470.497,2021-6-30T02:01:27Z
2021-06-30T00:03:15Z,42.805,6.029,13.2994,4.60020,2470.544,2021-6-30T02:04:30Z
2021-06-30T00:06:18Z,42.805,6.029,13.2992,4.60014,2470.507,2021-6-30T02:07:33Z
2021-06-30T00:09:21Z,42.805,6.029,13.2995,4.60016,2470.497,2021-6-30T02:10:36Z
2021-06-30T00:12:24Z,42.805,6.029,13.2998,4.60022,2470.483,2021-6-30T02:13:39Z
2021-06-30T00:15:28Z,42.805,6.029,13.3004,4.60029,2470.507,2021-6-30T02:16:42Z
2021-06-30T00:18:31Z,42.805,6.029,13.3000,4.60029,2470.446,2021-6-30T02:19:45Z
2021-06-30T00:21:34Z,42.805,6.029,13.3000,4.60020,2470.52,2021-6-30T02:22:49Z
2021-06-30T00:24:37Z,42.805,6.029,13.2997,4.60018,2470.474,2021-6-30T02:25:52Z
2021-06-30T00:27:40Z,42.805,6.029,13.2999,4.60014,2470.474,2021-6-30T02:28:55Z
2021-06-30T00:30:43Z,42.805,6.029,13.2994,4.60014,2470.52,2021-6-30T02:31:58Z
2021-06-30T00:33:46Z,42.805,6.029,13.2997,4.60011,2470.507,2021-6-30T02:35:01Z
2021-06-30T00:36:49Z,42.805,6.029,13.3000,4.60014,2470.483,2021-6-30T02:38:04Z
2021-06-30T00:39:53Z,42.805,6.029,13.2997,4.60020,2470.474,2021-6-30T02:41:07Z
2021-06-30T00:42:56Z,42.805,6.029,13.3002,4.60021,2470.483,2021-6-30T02:44:10Z
2021-06-30T00:45:59Z,42.805,6.029,13.2996,4.60027,2470.507,2021-6-30T02:47:14Z
2021-06-30T00:49:02Z,42.805,6.029,13.2996,4.60014,2470.46,2021-6-30T02:50:17Z
2021-06-30T00:52:05Z,42.805,6.029,13.3002,4.60024,2470.497,2021-6-30T02:53:20Z
2021-06-30T00:55:08Z,42.805,6.029,13.2997,4.60031,2470.474,2021-6-30T02:56:23Z
2021-06-30T00:58:11Z,42.805,6.029,13.3000,4.60050,2470.46,2021-6-30T02:59:26Z
2021-06-30T01:01:14Z,42.805,6.029,13.3007,4.60023,2470.474,2021-6-30T03:02:29Z
2021-06-30T01:04:18Z,42.805,6.029,13.2999,4.60021,2470.474,2021-6-30T03:05:32Z
2021-06-30T01:07:21Z,42.805,6.029,13.3002,4.60028,2470.483,2021-6-30T03:08:35Z
2021-06-30T01:10:24Z,42.805,6.029,13.3000,4.60016,2470.474,2021-6-30T03:11:39Z
2021-06-30T01:13:27Z,42.805,6.029,13.3002,4.60016,2470.413,2021-6-30T03:14:42Z
2021-06-30T01:16:30Z,42.805,6.029,13.2997,4.60020,2470.474,2021-6-30T03:17:45Z
2021-06-30T01:19:33Z,42.805,6.029,13.2996,4.60014,2470.437,2021-6-30T03:20:48Z
2021-06-30T01:22:36Z,42.805,6.029,13.2997,4.60019,2470.483,2021-6-30T03:23:51Z
2021-06-30T01:25:39Z,42.805,6.029,13.2996,4.60021,2470.46,2021-6-30T03:26:54Z
2021-06-30T01:28:43Z,42.805,6.029,13.2995,4.60014,2470.46,2021-6-30T03:29:57Z
2021-06-30T01:31:46Z,42.805,6.029,13.2996,4.60016,2470.437,2021-6-30T03:33:00Z
2021-06-30T01:34:49Z,42.805,6.029,13.2990,4.60014,2470.45,2021-6-30T03:36:04Z
2021-06-30T01:37:52Z,42.805,6.029,13.2996,4.60013,2470.437,2021-6-30T03:39:07Z
2021-06-30T01:40:55Z,42.805,6.029,13.3009,4.60020,2470.46,2021-6-30T03:42:10Z
2021-06-30T01:43:58Z,42.805,6.029,13.2993,4.60014,2470.46,2021-6-30T03:45:13Z
2021-06-30T01:47:01Z,42.805,6.029,13.3002,4.60021,2470.474,2021-6-30T03:48:16Z
2021-06-30T01:50:04Z,42.805,6.029,13.2996,4.60033,2470.474,2021-6-30T03:51:19Z
2021-06-30T01:53:08Z,42.805,6.029,13.2996,4.60017,2470.427,2021-6-30T03:54:22Z
2021-06-30T01:56:11Z,42.805,6.029,13.2993,4.60016,2470.46,2021-6-30T03:57:25Z
2021-06-30T01:59:14Z,42.805,6.029,13.3006,4.60026,2470.413,2021-6-30T04:00:28Z
2021-06-30T02:02:17Z,42.805,6.029,13.3009,4.60042,2470.437,2021-6-30T04:03:32Z
2021-06-30T02:05:20Z,42.805,6.029,13.2998,4.60031,2470.413,2021-6-30T04:06:35Z
2021-06-30T02:08:23Z,42.805,6.029,13.2995,4.60019,2470.413,2021-6-30T04:09:38Z
2021-06-30T02:11:26Z,42.805,6.029,13.2998,4.60016,2470.427,2021-6-30T04:12:41Z
2021-06-30T02:14:29Z,42.805,6.029,13.2994,4.60030,2470.45,2021-6-30T04:15:44Z
2021-06-30T02:17:33Z,42.805,6.029,13.2999,4.60014,2470.45,2021-6-30T04:18:47Z
2021-06-30T02:20:36Z,42.805,6.029,13.2997,4.60026,2470.437,2021-6-30T04:21:50Z
2021-06-30T02:23:39Z,42.805,6.029,13.3004,4.60031,2470.437,2021-6-30T04:24:53Z
2021-06-30T02:26:42Z,42.805,6.029,13.2998,4.60029,2470.45,2021-6-30T04:27:57Z
2021-06-30T02:29:45Z,42.805,6.029,13.3000,4.60016,2470.413,2021-6-30T04:31:00Z
2021-06-30T02:32:48Z,42.805,6.029,13.2999,4.60018,2470.437,2021-6-30T04:34:03Z
2021-06-30T02:35:51Z,42.805,6.029,13.2996,4.60011,2470.413,2021-6-30T04:37:06Z
2021-06-30T02:38:54Z,42.805,6.029,13.2993,4.60014,2470.413,2021-6-30T04:40:09Z
2021-06-30T02:41:57Z,42.805,6.029,13.2994,4.60014,2470.413,2021-6-30T04:43:12Z
2021-06-30T02:45:01Z,42.805,6.029,13.2993,4.60023,2470.45,2021-6-30T04:46:15Z
2021-06-30T02:48:04Z,42.805,6.029,13.2997,4.60014,2470.39,2021-6-30T04:49:18Z
2021-06-30T02:51:07Z,42.805,6.029,13.2999,4.60014,2470.39,2021-6-30T04:52:22Z
2021-06-30T02:54:10Z,42.805,6.029,13.3002,4.60019,2470.427,2021-6-30T04:55:25Z
2021-06-30T02:57:13Z,42.805,6.029,13.3006,4.60031,2470.427,2021-6-30T04:58:28Z
2021-06-30T03:00:16Z,42.805,6.029,13.2999,4.60013,2470.413,2021-6-30T05:01:31Z
2021-06-30T03:03:19Z,42.805,6.029,13.3000,4.60016,2470.404,2021-6-30T05:04:34Z
2021-06-30T03:06:22Z,42.805,6.029,13.3000,4.60016,2470.437,2021-6-30T05:07:37Z
2021-06-30T03:09:26Z,42.805,6.029,13.2995,4.60020,2470.413,2021-6-30T05:10:40Z
2021-06-30T03:12:29Z,42.805,6.029,13.2992,4.60014,2470.39,2021-6-30T05:13:43Z
2021-06-30T03:15:32Z,42.805,6.029,13.2996,4.60020,2470.413,2021-6-30T05:16:47Z
2021-06-30T03:18:35Z,42.805,6.029,13.2996,4.60021,2470.39,2021-6-30T05:19:50Z
2021-06-30T03:21:38Z,42.805,6.029,13.2998,4.60016,2470.366,2021-6-30T05:22:53Z
2021-06-30T03:24:41Z,42.805,6.029,13.2993,4.60015,2470.39,2021-6-30T05:25:56Z
2021-06-30T03:27:44Z,42.805,6.029,13.2994,4.60021,2470.404,2021-6-30T05:28:59Z
2021-06-30T03:30:47Z,42.805,6.029,13.3002,4.60011,2470.404,2021-6-30T05:32:02Z
2021-06-30T03:33:51Z,42.805,6.029,13.2998,4.60013,2470.427,2021-6-30T05:35:05Z
2021-06-30T03:36:54Z,42.805,6.029,13.3004,4.60016,2470.39,2021-6-30T05:38:08Z
2021-06-30T03:39:57Z,42.805,6.029,13.2994,4.60016,2470.366,2021-6-30T05:41:12Z
2021-06-30T03:43:00Z,42.805,6.029,13.2996,4.60014,2470.366,2021-6-30T05:44:15Z
2021-06-30T03:46:03Z,42.805,6.029,13.2993,4.60016,2470.38,2021-6-30T05:47:18Z
2021-06-30T03:49:06Z,42.805,6.029,13.2995,4.60014,2470.334,2021-6-30T05:50:21Z
2021-06-30T03:52:09Z,42.805,6.029,13.2997,4.60010,2470.343,2021-6-30T05:53:24Z
2021-06-30T03:55:12Z,42.805,6.029,13.3002,4.60028,2470.343,2021-6-30T05:56:27Z
2021-06-30T03:58:16Z,42.805,6.029,13.2998,4.60017,2470.334,2021-6-30T05:59:30Z
2021-06-30T04:01:19Z,42.805,6.029,13.3001,4.60021,2470.366,2021-6-30T06:02:33Z
2021-06-30T04:04:22Z,42.805,6.029,13.2996,4.60021,2470.366,2021-6-30T06:05:37Z
2021-06-30T04:07:25Z,42.805,6.029,13.2996,4.60014,2470.366,2021-6-30T06:08:40Z
2021-06-30T04:10:28Z,42.805,6.029,13.3001,4.60033,2470.366,2021-6-30T06:11:43Z
2021-06-30T04:13:31Z,42.805,6.029,13.2997,4.60028,2470.413,2021-6-30T06:14:46Z
2021-06-30T04:16:34Z,42.805,6.029,13.2994,4.60015,2470.366,2021-6-30T06:17:49Z
2021-06-30T04:19:37Z,42.805,6.029,13.3000,4.60021,2470.404,2021-6-30T06:20:52Z
2021-06-30T04:22:41Z,42.805,6.029,13.2998,4.60016,2470.366,2021-6-30T06:23:55Z
2021-06-30T04:25:44Z,42.805,6.029,13.3000,4.60019,2470.357,2021-6-30T06:26:58Z
2021-06-30T04:28:47Z,42.805,6.029,13.2998,4.60014,2470.39,2021-6-30T06:30:02Z
2021-06-30T04:31:50Z,42.805,6.029,13.3005,4.60045,2470.343,2021-6-30T06:33:05Z
2021-06-30T04:34:53Z,42.805,6.029,13.2993,4.60019,2470.357,2021-6-30T06:36:08Z
2021-06-30T04:37:56Z,42.805,6.029,13.2999,4.60019,2470.357,2021-6-30T06:39:11Z
2021-06-30T04:40:59Z,42.805,6.029,13.3000,4.60017,2470.366,2021-6-30T06:42:14Z
2021-06-30T04:44:02Z,42.805,6.029,13.2994,4.60011,2470.357,2021-6-30T06:45:17Z
2021-06-30T04:47:06Z,42.805,6.029,13.3000,4.60025,2470.343,2021-6-30T06:48:20Z
2021-06-30T04:50:09Z,42.805,6.029,13.2996,4.60013,2470.357,2021-6-30T06:51:23Z
2021-06-30T04:53:12Z,42.805,6.029,13.2998,4.60015,2470.343,2021-6-30T06:54:26Z
2021-06-30T04:56:15Z,42.805,6.029,13.3000,4.60021,2470.32,2021-6-30T06:57:30Z
2021-06-30T04:59:18Z,42.805,6.029,13.3004,4.60021,2470.343,2021-6-30T07:00:33Z
2021-06-30T05:02:21Z,42.805,6.029,13.2997,4.60015,2470.343,2021-6-30T07:03:36Z
2021-06-30T05:05:24Z,42.805,6.029,13.2997,4.60010,2470.334,2021-6-30T07:06:39Z
2021-06-30T05:08:27Z,42.805,6.029,13.2997,4.60015,2470.334,2021-6-30T07:09:42Z
2021-06-30T05:11:30Z,42.805,6.029,13.3002,4.60033,2470.334,2021-6-30T07:12:45Z
2021-06-30T05:14:34Z,42.805,6.029,13.3000,4.60019,2470.334,2021-6-30T07:15:48Z
2021-06-30T05:17:37Z,42.805,6.029,13.3000,4.60012,2470.366,2021-6-30T07:18:51Z
2021-06-30T05:20:40Z,42.805,6.029,13.2996,4.60019,2470.357,2021-6-30T07:21:55Z
2021-06-30T05:23:43Z,42.805,6.029,13.2998,4.60023,2470.32,2021-6-30T07:24:58Z
2021-06-30T05:26:46Z,42.805,6.029,13.3000,4.60014,2470.343,2021-6-30T07:28:01Z
2021-06-30T05:29:49Z,42.805,6.029,13.2998,4.60016,2470.32,2021-6-30T07:31:04Z
2021-06-30T05:32:52Z,42.805,6.029,13.2999,4.60017,2470.334,2021-6-30T07:34:07Z
2021-06-30T05:35:55Z,42.805,6.029,13.2997,4.60042,2470.334,2021-6-30T07:37:10Z
2021-06-30T05:38:59Z,42.805,6.029,13.3003,4.60019,2470.32,2021-6-30T07:40:13Z
2021-06-30T05:42:02Z,42.805,6.029,13.2998,4.60019,2470.32,2021-6-30T07:43:16Z
2021-06-30T05:45:05Z,42.805,6.029,13.2996,4.60014,2470.297,2021-6-30T07:46:20Z
2021-06-30T05:48:08Z,42.805,6.029,13.2997,4.60018,2470.334,2021-6-30T07:49:23Z
2021-06-30T05:51:11Z,42.805,6.029,13.2991,4.60011,2470.343,2021-6-30T07:52:26Z
2021-06-30T05:54:14Z,42.805,6.029,13.3000,4.60016,2470.297,2021-6-30T07:55:29Z
2021-06-30T05:57:17Z,42.805,6.029,13.2998,4.60017,2470.297,2021-6-30T07:58:32Z
2021-06-30T06:00:20Z,42.805,6.029,13.2992,4.60026,2470.334,2021-6-30T08:01:35Z
2021-06-30T06:03:24Z,42.805,6.029,13.3002,4.60015,2470.31,2021-6-30T08:04:38Z
2021-06-30T06:06:27Z,42.805,6.029,13.2997,4.60019,2470.357,2021-6-30T08:07:41Z
2021-06-30T06:09:30Z,42.805,6.029,13.2995,4.60009,2470.334,2021-6-30T08:10:45Z
2021-06-30T06:12:33Z,42.805,6.029,13.2993,4.60020,2470.297,2021-6-30T08:13:48Z
2021-06-30T06:15:36Z,42.805,6.029,13.3004,4.60023,2470.31,2021-6-30T08:16:51Z
2021-06-30T06:18:39Z,42.805,6.029,13.2996,4.60020,2470.297,2021-6-30T08:19:54Z
2021-06-30T06:21:42Z,42.805,6.029,13.2996,4.60011,2470.31,2021-6-30T08:22:57Z
2021-06-30T06:24:45Z,42.805,6.029,13.3004,4.60018,2470.334,2021-6-30T08:26:00Z
2021-06-30T06:27:49Z,42.805,6.029,13.2997,4.60044,2470.334,2021-6-30T08:29:03Z
2021-06-30T06:30:52Z,42.805,6.029,13.3003,4.60026,2470.273,2021-6-30T08:32:06Z
2021-06-30T06:33:55Z,42.805,6.029,13.3000,4.60023,2470.32,2021-6-30T08:35:10Z
2021-06-30T06:36:58Z,42.805,6.029,13.2991,4.60009,2470.297,2021-6-30T08:38:13Z
2021-06-30T06:40:01Z,42.805,6.029,13.2997,4.60021,2470.31,2021-6-30T08:41:16Z
2021-06-30T06:43:04Z,42.805,6.029,13.2997,4.60013,2470.32,2021-6-30T08:44:19Z
2021-06-30T06:46:07Z,42.805,6.029,13.3004,4.60016,2470.287,2021-6-30T08:47:22Z
2021-06-30T06:49:10Z,42.805,6.029,13.2996,4.60019,2470.297,2021-6-30T08:50:25Z
2021-06-30T06:52:14Z,42.805,6.029,13.2994,4.60019,2470.297,2021-6-30T08:53:28Z
2021-06-30T06:55:17Z,42.805,6.029,13.3000,4.60016,2470.334,2021-6-30T08:56:31Z
2021-06-30T06:58:20Z,42.805,6.029,13.3000,4.60020,2470.334,2021-6-30T08:59:35Z
2021-06-30T07:01:23Z,42.805,6.029,13.3000,4.60011,2470.31,2021-6-30T09:02:38Z
2021-06-30T07:04:26Z,42.805,6.029,13.2999,4.60021,2470.32,2021-6-30T09:05:41Z
2021-06-30T07:07:29Z,42.805,6.029,13.2997,4.60016,2470.343,2021-6-30T09:08:44Z
2021-06-30T07:10:32Z,42.805,6.029,13.3006,4.60023,2470.32,2021-6-30T09:11:47Z
2021-06-30T07:13:35Z,42.805,6.029,13.2996,4.60026,2470.297,2021-6-30T09:14:50Z
2021-06-30T07:16:39Z,42.805,6.029,13.3000,4.60019,2470.273,2021-6-30T09:17:53Z
2021-06-30T07:19:42Z,42.805,6.029,13.2991,4.60011,2470.32,2021-6-30T09:20:56Z
2021-06-30T07:22:45Z,42.805,6.029,13.2996,4.60009,2470.32,2021-6-30T09:24:00Z
2021-06-30T07:25:48Z,42.805,6.029,13.2997,4.60011,2470.273,2021-6-30T09:27:03Z
2021-06-30T07:28:51Z,42.805,6.029,13.2996,4.60011,2470.31,2021-6-30T09:30:06Z
2021-06-30T07:31:54Z,42.805,6.029,13.2995,4.60013,2470.32,2021-6-30T09:33:09Z
2021-06-30T07:34:57Z,42.805,6.029,13.2994,4.60017,2470.297,2021-6-30T09:36:12Z
2021-06-30T07:38:00Z,42.805,6.029,13.2993,4.60013,2470.343,2021-6-30T09:39:15Z
2021-06-30T07:41:04Z,42.805,6.029,13.2996,4.60013,2470.334,2021-6-30T09:42:18Z
2021-06-30T07:44:07Z,42.805,6.029,13.2999,4.60022,2470.357,2021-6-30T09:45:21Z
2021-06-30T07:47:10Z,42.805,6.029,13.2994,4.60009,2470.32,2021-6-30T09:48:25Z
2021-06-30T07:50:13Z,42.805,6.029,13.2998,4.60029,2470.32,2021-6-30T09:51:28Z
2021-06-30T07:53:16Z,42.805,6.029,13.2999,4.60017,2470.32,2021-6-30T09:54:31Z
2021-06-30T07:56:19Z,42.805,6.029,13.2999,4.60022,2470.32,2021-6-30T09:57:34Z
2021-06-30T07:59:22Z,42.805,6.029,13.2993,4.60006,2470.32,2021-6-30T10:00:37Z
2021-06-30T08:02:25Z,42.805,6.029,13.2996,4.60017,2470.31,2021-6-30T10:03:40Z
2021-06-30T08:05:29Z,42.805,6.029,13.2994,4.60012,2470.366,2021-6-30T10:06:43Z
2021-06-30T08:08:32Z,42.805,6.029,13.2993,4.60027,2470.32,2021-6-30T10:09:46Z
2021-06-30T08:11:35Z,42.805,6.029,13.3000,4.60017,2470.357,2021-6-30T10:12:50Z
2021-06-30T08:14:38Z,42.805,6.029,13.3009,4.60036,2470.366,2021-6-30T10:15:53Z
2021-06-30T08:17:41Z,42.805,6.029,13.2998,4.60025,2470.357,2021-6-30T10:18:56Z
2021-06-30T08:20:44Z,42.805,6.029,13.2993,4.60014,2470.343,2021-6-30T10:21:59Z
2021-06-30T08:23:47Z,42.805,6.029,13.2996,4.60022,2470.38,2021-6-30T10:25:02Z
2021-06-30T08:26:50Z,42.805,6.029,13.2998,4.60012,2470.357,2021-6-30T10:28:05Z
2021-06-30T08:29:54Z,42.805,6.029,13.2993,4.60009,2470.343,2021-6-30T10:31:08Z
2021-06-30T08:32:57Z,42.805,6.029,13.2996,4.60011,2470.334,2021-6-30T10:34:11Z
2021-06-30T08:36:00Z,42.805,6.029,13.3000,4.60018,2470.343,2021-6-30T10:37:15Z
2021-06-30T08:39:03Z,42.805,6.029,13.2998,4.60026,2470.343,2021-6-30T10:40:18Z
2021-06-30T08:42:06Z,42.805,6.029,13.3000,4.60019,2470.32,2021-6-30T10:43:21Z
2021-06-30T08:45:09Z,42.805,6.029,13.2993,4.60014,2470.357,2021-6-30T10:46:24Z
2021-06-30T08:48:12Z,42.805,6.029,13.2999,4.60017,2470.334,2021-6-30T10:49:27Z
2021-06-30T08:51:15Z,42.805,6.029,13.3004,4.60040,2470.343,2021-6-30T10:52:30Z
2021-06-30T08:54:19Z,42.805,6.029,13.3000,4.60029,2470.366,2021-6-30T10:55:33Z
2021-06-30T08:57:22Z,42.805,6.029,13.2999,4.60016,2470.343,2021-6-30T10:58:36Z
2021-06-30T09:00:25Z,42.805,6.029,13.2996,4.60015,2470.343,2021-6-30T11:01:40Z
2021-06-30T09:03:28Z,42.805,6.029,13.3001,4.60029,2470.357,2021-6-30T11:04:43Z
2021-06-30T09:06:31Z,42.805,6.029,13.2998,4.60029,2470.38,2021-6-30T11:07:46Z
2021-06-30T09:09:34Z,42.805,6.029,13.2996,4.60029,2470.38,2021-6-30T11:10:49Z
2021-06-30T09:12:37Z,42.805,6.029,13.2998,4.60016,2470.366,2021-6-30T11:13:52Z
2021-06-30T09:15:41Z,42.805,6.029,13.2995,4.60020,2470.334,2021-6-30T11:16:55Z
2021-06-30T09:18:44Z,42.805,6.029,13.2995,4.60014,2470.343,2021-6-30T11:19:58Z
2021-06-30T09:21:47Z,42.805,6.029,13.2999,4.60025,2470.366,2021-6-30T11:23:02Z
2021-06-30T09:24:50Z,42.805,6.029,13.2997,4.60019,2470.343,2021-6-30T11:26:05Z
2021-06-30T09:27:53Z,42.805,6.029,13.2997,4.60015,2470.353,2021-6-30T11:29:08Z
2021-06-30T09:30:56Z,42.805,6.029,13.3001,4.60011,2470.38,2021-6-30T11:32:11Z
2021-06-30T09:33:59Z,42.805,6.029,13.2998,4.60020,2470.357,2021-6-30T11:35:14Z
2021-06-30T09:37:02Z,42.805,6.029,13.3001,4.60028,2470.38,2021-6-30T11:38:17Z
2021-06-30T09:40:06Z,42.805,6.029,13.2996,4.60024,2470.38,2021-6-30T11:41:20Z
2021-06-30T09:43:09Z,42.805,6.029,13.3003,4.60019,2470.32,2021-6-30T11:44:23Z
2021-06-30T09:46:12Z,42.805,6.029,13.3000,4.60017,2470.38,2021-6-30T11:47:27Z
2021-06-30T09:49:15Z,42.805,6.029,13.2995,4.60020,2470.39,2021-6-30T11:50:30Z
2021-06-30T09:52:18Z,42.805,6.029,13.2993,4.60020,2470.343,2021-6-30T11:53:33Z
2021-06-30T09:55:21Z,42.805,6.029,13.2996,4.60017,2470.404,2021-6-30T11:56:36Z
2021-06-30T09:58:24Z,42.805,6.029,13.3005,4.60007,2470.404,2021-6-30T11:59:39Z
2021-06-30T10:01:27Z,42.805,6.029,13.2996,4.60039,2470.427,2021-6-30T12:02:42Z
2021-06-30T10:04:31Z,42.805,6.029,13.2999,4.60015,2470.366,2021-6-30T12:05:45Z
2021-06-30T10:07:34Z,42.805,6.029,13.2993,4.60013,2470.357,2021-6-30T12:08:48Z
2021-06-30T10:10:37Z,42.805,6.029,13.2997,4.60029,2470.39,2021-6-30T12:11:52Z
2021-06-30T10:13:40Z,42.805,6.029,13.2998,4.60010,2470.357,2021-6-30T12:14:55Z
2021-06-30T10:16:43Z,42.805,6.029,13.2992,4.60014,2470.357,2021-6-30T12:17:58Z
2021-06-30T10:19:46Z,42.805,6.029,13.2992,4.60021,2470.366,2021-6-30T12:21:01Z
2021-06-30T10:22:49Z,42.805,6.029,13.2995,4.60020,2470.39,2021-6-30T12:24:04Z
2021-06-30T10:25:52Z,42.805,6.029,13.2999,4.60013,2470.39,2021-6-30T12:27:07Z
2021-06-30T10:28:56Z,42.805,6.029,13.2997,4.60013,2470.366,2021-6-30T12:30:10Z
2021-06-30T10:31:59Z,42.805,6.029,13.2998,4.60010,2470.38,2021-6-30T12:33:13Z
2021-06-30T10:35:02Z,42.805,6.029,13.2993,4.60010,2470.366,2021-6-30T12:36:17Z
2021-06-30T10:38:05Z,42.805,6.029,13.2997,4.60014,2470.357,2021-6-30T12:39:20Z
2021-06-30T10:41:08Z,42.805,6.029,13.3000,4.60036,2470.38,2021-6-30T12:42:23Z
2021-06-30T10:44:11Z,42.805,6.029,13.3003,4.60021,2470.38,2021-6-30T12:45:26Z
2021-06-30T10:47:14Z,42.805,6.029,13.2993,4.60012,2470.404,2021-6-30T12:48:29Z
2021-06-30T10:50:18Z,42.805,6.029,13.3002,4.60019,2470.366,2021-6-30T12:51:32Z
2021-06-30T10:53:21Z,42.805,6.029,13.2995,4.60013,2470.357,2021-6-30T12:54:35Z
2021-06-30T10:56:24Z,42.805,6.029,13.3000,4.60015,2470.343,2021-6-30T12:57:39Z
2021-06-30T10:59:27Z,42.805,6.029,13.3000,4.60021,2470.366,2021-6-30T13:00:42Z
2021-06-30T11:02:30Z,42.805,6.029,13.2998,4.60019,2470.38,2021-6-30T13:03:45Z
2021-06-30T11:05:33Z,42.805,6.029,13.2993,4.60013,2470.357,2021-6-30T13:06:48Z
2021-06-30T11:08:36Z,42.805,6.029,13.3000,4.60014,2470.357,2021-6-30T13:09:51Z
2021-06-30T11:11:39Z,42.805,6.029,13.2999,4.60015,2470.366,2021-6-30T13:12:54Z
2021-06-30T11:14:43Z,42.805,6.029,13.2998,4.60026,2470.404,2021-6-30T13:15:57Z
2021-06-30T11:17:46Z,42.805,6.029,13.2998,4.60015,2470.38,2021-6-30T13:19:00Z
2021-06-30T11:20:49Z,42.805,6.029,13.3000,4.60016,2470.38,2021-6-30T13:22:04Z
2021-06-30T11:23:52Z,42.805,6.029,13.2998,4.60011,2470.357,2021-6-30T13:25:07Z
2021-06-30T11:26:55Z,42.805,6.029,13.3005,4.60015,2470.357,2021-6-30T13:28:10Z
2021-06-30T11:29:58Z,42.805,6.029,13.2997,4.60014,2470.343,2021-6-30T13:31:13Z
2021-06-30T11:33:01Z,42.805,6.029,13.2996,4.60014,2470.343,2021-6-30T13:34:16Z
2021-06-30T11:36:04Z,42.805,6.029,13.3000,4.60016,2470.366,2021-6-30T13:37:19Z
2021-06-30T11:39:08Z,42.805,6.029,13.3004,4.60021,2470.38,2021-6-30T13:40:22Z
2021-06-30T11:42:11Z,42.805,6.029,13.2997,4.60012,2470.39,2021-6-30T13:43:25Z
2021-06-30T11:45:14Z,42.805,6.029,13.2996,4.60015,2470.366,2021-6-30T13:46:29Z
2021-06-30T11:48:17Z,42.805,6.029,13.3000,4.60036,2470.357,2021-6-30T13:49:32Z
2021-06-30T11:51:20Z,42.805,6.029,13.3006,4.60021,2470.357,2021-6-30T13:52:35Z
2021-06-30T11:54:23Z,42.805,6.029,13.3004,4.60028,2470.38,2021-6-30T13:55:38Z
2021-06-30T11:57:26Z,42.805,6.029,13.2995,4.60012,2470.343,2021-6-30T13:58:41Z
2021-06-30T12:00:29Z,42.805,6.029,13.2999,4.60028,2470.366,2021-6-30T14:01:44Z
2021-06-30T12:03:33Z,42.805,6.029,13.3000,4.60025,2470.366,2021-6-30T14:04:47Z
2021-06-30T12:06:36Z,42.805,6.029,13.2997,4.60018,2470.343,2021-6-30T14:07:50Z
2021-06-30T12:09:39Z,42.805,6.029,13.2996,4.60014,2470.357,2021-6-30T14:10:54Z
2021-06-30T12:12:42Z,42.805,6.029,13.2996,4.60014,2470.343,2021-6-30T14:13:57Z
2021-06-30T12:15:45Z,42.805,6.029,13.2998,4.60017,2470.343,2021-6-30T14:17:00Z
2021-06-30T12:18:48Z,42.805,6.029,13.3000,4.60020,2470.32,2021-6-30T14:20:03Z
2021-06-30T12:21:51Z,42.805,6.029,13.2994,4.60019,2470.357,2021-6-30T14:23:06Z
2021-06-30T12:24:54Z,42.805,6.029,13.2999,4.60013,2470.343,2021-6-30T14:26:09Z
2021-06-30T12:27:58Z,42.805,6.029,13.3001,4.60035,2470.32,2021-6-30T14:29:12Z
2021-06-30T12:31:01Z,42.805,6.029,13.3004,4.60022,2470.343,2021-6-30T14:32:15Z
2021-06-30T12:34:04Z,42.805,6.029,13.2996,4.60015,2470.334,2021-6-30T14:35:19Z
2021-06-30T12:37:07Z,42.805,6.029,13.2998,4.60009,2470.357,2021-6-30T14:38:22Z
2021-06-30T12:40:10Z,42.805,6.029,13.2996,4.60019,2470.297,2021-6-30T14:41:25Z
2021-06-30T12:43:13Z,42.805,6.029,13.3003,4.60021,2470.343,2021-6-30T14:44:28Z
2021-06-30T12:46:16Z,42.805,6.029,13.2998,4.60017,2470.334,2021-6-30T14:47:31Z
2021-06-30T12:49:20Z,42.805,6.029,13.2997,4.60021,2470.32,2021-6-30T14:50:34Z
2021-06-30T12:52:23Z,42.805,6.029,13.3000,4.60013,2470.32,2021-6-30T14:53:37Z
2021-06-30T12:55:26Z,42.805,6.029,13.3003,4.60026,2470.357,2021-6-30T14:56:41Z
2021-06-30T12:58:29Z,42.805,6.029,13.2992,4.60015,2470.357,2021-6-30T14:59:44Z
2021-06-30T13:01:32Z,42.805,6.029,13.2998,4.60010,2470.343,2021-6-30T15:02:47Z
2021-06-30T13:04:35Z,42.805,6.029,13.2993,4.60029,2470.32,2021-6-30T15:05:50Z
2021-06-30T13:07:38Z,42.805,6.029,13.2996,4.60016,2470.32,2021-6-30T15:08:53Z
2021-06-30T13:10:41Z,42.805,6.029,13.3002,4.60024,2470.334,2021-6-30T15:11:56Z
2021-06-30T13:13:45Z,42.805,6.029,13.2996,4.60021,2470.32,2021-6-30T15:14:59Z
2021-06-30T13:16:48Z,42.805,6.029,13.3000,4.60021,2470.343,2021-6-30T15:18:02Z
2021-06-30T13:19:51Z,42.805,6.029,13.2999,4.60021,2470.334,2021-6-30T15:21:06Z
2021-06-30T13:22:55Z,42.805,6.029,13.3002,4.60026,2470.334,2021-6-30T15:24:09Z
2021-06-30T13:25:58Z,42.805,6.029,13.2998,4.60019,2470.32,2021-6-30T15:27:12Z
2021-06-30T13:29:01Z,42.805,6.029,13.2997,4.60020,2470.32,2021-6-30T15:30:16Z
2021-06-30T13:32:04Z,42.805,6.029,13.3003,4.60016,2470.32,2021-6-30T15:33:19Z
2021-06-30T13:35:07Z,42.805,6.029,13.3000,4.60017,2470.297,2021-6-30T15:36:22Z
2021-06-30T13:38:10Z,42.805,6.029,13.3000,4.60014,2470.343,2021-6-30T15:39:25Z
2021-06-30T13:41:13Z,42.805,6.029,13.3002,4.60014,2470.32,2021-6-30T15:42:28Z
2021-06-30T13:44:16Z,42.805,6.029,13.2996,4.60011,2470.343,2021-6-30T15:45:31Z
2021-06-30T13:47:20Z,42.805,6.029,13.2998,4.60017,2470.32,2021-6-30T15:48:34Z
2021-06-30T13:50:23Z,42.805,6.029,13.2993,4.60012,2470.297,2021-6-30T15:51:37Z
2021-06-30T13:53:26Z,42.805,6.029,13.2997,4.60016,2470.297,2021-6-30T15:54:41Z
2021-06-30T13:56:29Z,42.805,6.029,13.2993,4.60013,2470.32,2021-6-30T15:57:44Z
2021-06-30T13:59:32Z,42.805,6.029,13.2994,4.60014,2470.343,2021-6-30T16:00:47Z
2021-06-30T14:02:35Z,42.805,6.029,13.2996,4.60016,2470.343,2021-6-30T16:03:50Z
2021-06-30T14:05:38Z,42.805,6.029,13.2998,4.60011,2470.32,2021-6-30T16:06:53Z
2021-06-30T14:08:41Z,42.805,6.029,13.3005,4.60027,2470.32,2021-6-30T16:09:56Z
2021-06-30T14:11:45Z,42.805,6.029,13.2992,4.60011,2470.297,2021-6-30T16:12:59Z
2021-06-30T14:14:48Z,42.805,6.029,13.3004,4.60019,2470.334,2021-6-30T16:16:03Z
2021-06-30T14:17:51Z,42.805,6.029,13.2998,4.60021,2470.297,2021-6-30T16:19:06Z
2021-06-30T14:20:54Z,42.805,6.029,13.3000,4.60023,2470.32,2021-6-30T16:22:09Z
2021-06-30T14:23:57Z,42.805,6.029,13.3007,4.60021,2470.334,2021-6-30T16:25:12Z
2021-06-30T14:27:00Z,42.805,6.029,13.2996,4.60025,2470.32,2021-6-30T16:28:15Z
2021-06-30T14:30:03Z,42.805,6.029,13.2999,4.60021,2470.334,2021-6-30T16:31:18Z
2021-06-30T14:33:06Z,42.805,6.029,13.2999,4.60012,2470.297,2021-6-30T16:34:21Z
2021-06-30T14:36:10Z,42.805,6.029,13.3000,4.60020,2470.297,2021-6-30T16:37:24Z
2021-06-30T14:39:13Z,42.805,6.029,13.3003,4.60043,2470.297,2021-6-30T16:40:28Z
2021-06-30T14:42:16Z,42.805,6.029,13.2999,4.60011,2470.334,2021-6-30T16:43:31Z
2021-06-30T14:45:19Z,42.805,6.029,13.2999,4.60017,2470.334,2021-6-30T16:46:34Z
2021-06-30T14:48:22Z,42.805,6.029,13.2995,4.60021,2470.287,2021-6-30T16:49:37Z
2021-06-30T14:51:25Z,42.805,6.029,13.2997,4.60016,2470.32,2021-6-30T16:52:40Z
2021-06-30T14:54:28Z,42.805,6.029,13.2998,4.60016,2470.31,2021-6-30T16:55:43Z
2021-06-30T14:57:32Z,42.805,6.029,13.2995,4.60013,2470.297,2021-6-30T16:58:46Z
2021-06-30T15:00:35Z,42.805,6.029,13.2996,4.60018,2470.297,2021-6-30T17:01:49Z
2021-06-30T15:03:38Z,42.805,6.029,13.3000,4.60014,2470.31,2021-6-30T17:04:53Z
2021-06-30T15:06:41Z,42.805,6.029,13.3002,4.60021,2470.32,2021-6-30T17:07:56Z
2021-06-30T15:09:44Z,42.805,6.029,13.2999,4.60016,2470.297,2021-6-30T17:10:59Z
2021-06-30T15:12:47Z,42.805,6.029,13.2998,4.60016,2470.273,2021-6-30T17:14:02Z